Regional Weather Roundup
Issued by NWS

Home | Current Version | Previous Version | Graphics & Text | Print | Product List | Glossary On
Versions: 1 2 3 4 5 6 7 8 9 10 11 12 13 14 15 16 17 18 19 20 21 22 23 24 25 26 27 28 29 30 31 32 33 34 35 36 37 38 39 40 41 42 43 44 45 46 47 48 49 50
000
ASUS43 KMKX 230421
RWRWI

WISCONSIN REGIONAL WEATHER ROUNDUP
NATIONAL WEATHER SERVICE MILWAUKEE/SULLIVAN WI
1100 PM CDT WED OCT 22 2014

NOTE: "FAIR" INDICATES FEW OR NO CLOUDS BELOW 12,000 FEET WITH NO
SIGNIFICANT WEATHER AND/OR OBSTRUCTIONS TO VISIBILITY.

WIZ001-002-006>008-014>016-023>028-230500-
NORTHWEST WISCONSIN

CITY           SKY/WX    TMP DP  RH WIND       PRES   REMARKS
SUPERIOR ARPT  MOCLDY    47  35  64 S5        30.03F
ASHLAND        CLOUDY    53  35  50 S10G20    30.08S
HAYWARD        CLOUDY    53  36  52 S13       30.09R
SIREN          CLOUDY    54  37  52 S13G18    30.06F
CUMBERLAND     CLOUDY    50  37  62 SE8       30.10R
RICE LAKE      DRIZZLE   49  41  72 S7        30.13R
CHETEK         CLOUDY    48  42  80 E7        30.09F
LADYSMITH      LGT RAIN  49  39  68 S7        30.15S
EAU CLAIRE     CLOUDY    53  37  54 S13       30.11F
MENOMONIE      CLOUDY    50  42  72 E5        30.09F
NEW RICHMOND   CLOUDY    54  38  55 SE12      30.07F
OSCEOLA        CLOUDY    55  39  56 SE10      30.09F
$$

WIZ003>005-009-010-017-018-230500-
NORTH CENTRAL WISCONSIN

CITY           SKY/WX    TMP DP  RH WIND       PRES   REMARKS
MANITOWISH WTR PTCLDY    44  35  70 S9        30.13F
ARBOR VITAE    CLOUDY    46  37  70 S9        30.15F
WOODRUFF       CLOUDY    46  37  70 S9        30.15F
RHINELANDER    MOCLDY    43  35  73 S9        30.18F
EAGLE RIVER    CLEAR     40  32  74 S6        30.16F
LAND O LAKES   MOCLDY    43  35  72 S6        30.16F
PHILLIPS       CLOUDY    47  35  64 S10       30.13F
TOMAHAWK       CLOUDY    43  36  75 S5        30.17F
MEDFORD        MOCLDY    44  36  72 SE7       30.16F
MERRILL        CLEAR     41  37  83 SE7       30.18F
$$

WIZ029-030-035-036-043>047-230500-
CENTRAL WISCONSIN

CITY           SKY/WX    TMP DP  RH WIND       PRES   REMARKS
WAUSAU         CLEAR     41  36  82 E5        30.19S
MOSINEE        CLEAR     39  36  87 SE6       30.20S WCI  35
MARSHFIELD     CLEAR     44  36  73 S7        30.17F
STEVENS POINT  CLEAR     38  35  86 SE5       30.20F WCI  35
WAUPACA        CLEAR     43  40  89 SE6       30.23S
WAUTOMA        MOCLDY    41  38  89 SE7       30.22F
WISC RAPIDS    CLEAR     43  35  73 SE8       30.20F
CAMP DOUGLAS   PTCLDY    39  37  93 CALM      30.17F
$$

WIZ011>013-019>022-031-037>040-048>050-230500-
NORTHEAST WISCONSIN

CITY           SKY/WX    TMP DP  RH WIND       PRES   REMARKS
ANTIGO         CLEAR     36  36  97 SE5       30.20F WCI  32
SHAWANO        CLEAR     40  37  87 CALM      30.24F
OCONTO         CLEAR     42  40  96 S5        30.25F
STURGEON BAY   CLEAR     39  36  87 S6        30.25F WCI  35
GREEN BAY      CLEAR     38  36  92 S3        30.25F
MANITOWOC      CLEAR     37  37 100 S3        30.27F
APPLETON       PTCLDY    41  39  93 SE8       30.24F
CLINTONVILLE   CLEAR     37  36  93 SE3       30.23F
OSHKOSH        CLEAR     40  37  89 S8        30.23F WCI  34
$$

WIZ032>034-041-042-053>061-230500-
SOUTHWEST WISCONSIN

CITY           SKY/WX    TMP DP  RH WIND       PRES   REMARKS
LA CROSSE      MOCLDY    54  37  52 S9        30.15F
SPARTA         PTCLDY    47  35  63 SE3       30.17F
VIROQUA        MOCLDY    48  36  63 S7        30.17S
BOSCOBEL       PTCLDY    40  36  86 N3        30.20S
PRAIRIE DU CHI MOCLDY    49  36  60 E7        30.18S
PLATTEVILLE    PTCLDY    45  35  69 SE8       30.21S
$$

WIZ056-057-062-063-064-067-068-230500-
SOUTH CENTRAL WISCONSIN

CITY           SKY/WX    TMP DP  RH WIND       PRES   REMARKS
REEDSBURG      CLEAR     46  35  66 SE3       30.19S
BARABOO/DELLS  CLEAR     45  34  66 S5        30.19F
LONE ROCK      CLEAR     43  34  70 E6        30.21S
MINERAL POINT  CLEAR     45  34  65 SE8       30.20F
MADISON        PTCLDY    44  38  79 S10       30.23F
MIDDLETON      CLEAR     44  37  76 SE5       30.23S
WATERTOWN      CLEAR     37  37  99 CALM      30.25F
MONROE         CLEAR     43  36  75 SE9       30.22F
JANESVILLE     CLEAR     39  36  87 SE5       30.24F
$$

WIZ051-052-058>065-066-070>072-230500-
SOUTHEAST WISCONSIN

CITY           SKY/WX    TMP DP  RH WIND       PRES   REMARKS
MILWAUKEE      CLEAR     37  33  85 CALM      30.27S
WAUKESHA       CLEAR     34  34 100 S5        30.27S WCI  30
MILWAUKEE/TIMM CLEAR     34  32  93 CALM      30.28S FOG
RACINE         CLEAR     36  33  89 CALM      30.29S
BURLINGTON     CLEAR     30  30 100 CALM      30.27S
KENOSHA        CLEAR     36  34  92 CALM      30.27F
FOND DU LAC    CLEAR     38  35  89 S7        30.25S WCI  33
SHEBOYGAN      CLEAR     31  30  96 CALM      30.27S FOG
WEST BEND      CLEAR     34  32  93 CALM      30.26S
JUNEAU         CLEAR     37  36  93 SE6       30.25F WCI  33
$$

LSZ147-162-230500-
LAKE SUPERIOR

STATION/POSITION TIME  TEMP    WIND        PRES    WAVE
                       AIR SEA DIR/SP/G            HT/PER
                 (UTC) (F)     (DEG/KT/KT) (MB)    (FT/S)
W MID LAKE BUOY  0350   48 46  170/  8/ 10 1019.0F   2/ 3
DEVILS ISLAND    0400   53     180/  7/  9 1018.4F
PORT WING        0340   49     130/  2/  3 1017.6F
SAXON HARBOR     0300   55     200/  9/ 15 1017.9F
$$

LMZ867-665-643>646-230500-
LAKE MICHIGAN

STATION/POSITION TIME  TEMP    WIND        PRES    WAVE
                       AIR SEA DIR/SP/G            HT/PER
                 (UTC) (F)     (DEG/KT/KT) (MB)    (FT/S)
CHAMBERS ISLAND  0300   41     150/  3/  5 1025.1
N MID LAKE BUOY  0350   47 51  170/ 10/ 12 1025.3F   1
NORTHPORT PIER   0300   42     160/  2/  5 1024.7F
SISTER BAY       0212          150/  9/ 11   N/A
KEWAUNEE LAKESHO 0400   44     200/  5/  6 1023.9F
SHEBOYGAN LAKESH 0400   44 51  220/  3/  4 1025.6F
PORT WASHINGTON  0340   44     270/  2/  4 1025.7S
ATWATER BUOY     0400   49     190/  6/  8 1025.9S
MILWAUKEE LAKESH 0400   46     210/  3/  4   N/A
S MID LAKE BUOY  0350   51 54  120/ 10/ 14 1025.5F   1/ 3
KENOSHA   LAKESH 0400   47     190/  5/  7 1025.1S
$$

TC  - TEMPERATURE IN CELSIUS
VSB - VISIBILITY IN STATUTE MILES
WCI - WIND CHILL INDEX
HX  - HEAT INDEX




USA.gov is the U.S. government's official web portal to all federal, state and local government web resources and services.